{"data":{"norad_id":69686,"epoch":"2026-09-19T00:08:15.884160Z","epoch_age_seconds":150733,"freshness":"FRESH","line1":"1 69686U 26145K   26262.00573940  .00012184  00000+0  37909-3 0  9995","line2":"2 69686  97.2825 108.6840 0002625  83.1479 277.0062 15.33443933 13314","mean_motion":15.33443933,"eccentricity":0.0002625,"inclination_deg":97.2825,"raan_deg":108.684,"arg_perigee_deg":83.1479,"mean_anomaly_deg":277.0062,"bstar":0.00037909,"rev_number":1331,"period_min":93.906269998591,"perigee_km":463.74988224213,"apogee_km":467.34281600042,"semimajor_km":6843.6833491213,"source":"CELESTRAK","updated_at":"2026-09-20T09:00:44.253710Z"}}